Regional Weather Roundup
Issued by NWS

Home | Current Version | Previous Version | Graphics & Text | Print | Product List | Glossary On
Versions: 1 2 3 4 5 6 7 8 9 10 11 12 13 14 15 16 17 18 19 20 21 22 23 24 25 26 27 28 29 30 31 32 33 34 35 36 37 38 39 40 41 42 43 44 45 46 47 48 49
000
ASUS45 KBOI 041110
RWRID

IDAHO REGIONAL WEATHER ROUNDUP
NATIONAL WEATHER SERVICE BOISE ID
500 AM MDT SAT JUL 04 2015

NOTE: "FAIR" INDICATES FEW OR NO CLOUDS BELOW 12000 FEET
WITH NO SIGNIFICANT WEATHER AND/OR OBSTRUCTIONS TO VISIBILITY

IDZ012-014-041200-
SOUTHWEST IDAHO


CITY           SKY/WX    TMP DP  RH WIND       PRES   REMARKS
BOISE          MOCLDY    75  45  34 S6        29.83R
CALDWELL       MOCLDY    72  45  37 SW7       29.83R
MOUNTAIN HOME  MOCLDY    74  36  24 NW13      29.83S
$$

IDZ016-017-041200-
SOUTHCENTRAL IDAHO


CITY           SKY/WX    TMP DP  RH WIND       PRES   REMARKS
BURLEY         PTCLDY    65  49  56 CALM      29.91R
JEROME         MOCLDY    71  48  43 S7        29.92R
TWIN FALLS     PTCLDY    77  46  33 S13       29.89F
$$

IDZ019>023-041200-
SOUTHEAST IDAHO


CITY           SKY/WX    TMP DP  RH WIND       PRES   REMARKS
IDAHO FALLS    CLEAR     59  53  80 N3        29.96R
POCATELLO      CLEAR     69  47  45 SW10      29.94S
REXBURG        CLEAR     58  52  80 E7        29.97R
$$

IDZ006-010-011-018-031-032-041200-
CENTRAL IDAHO MOUNTAINS


CITY           SKY/WX    TMP DP  RH WIND       PRES   REMARKS
MCCALL         PTCLDY    54  42  64 CALM      30.00S
HAILEY         PTCLDY    63  36  36 NW10      30.04S
STANLEY          N/A     44  31  60 CALM      30.15S
SALMON         PTCLDY    54  46  76 CALM      29.97R
CHALLIS        CLEAR     58  40  51 E3        30.03R
$$

IDZ002-004-006-007-026-041200-
NORTHERN IDAHO


CITY           SKY/WX    TMP DP  RH WIND       PRES   REMARKS
LEWISTON       CLEAR     72  43  35 CALM      29.78R
LOWELL           N/A     61  53  75 NW5       29.87R
COEUR D`ALENE  CLEAR     63  48  59 NE6       29.80S
MULLAN PASS    CLEAR     67  34  29 NW5       30.06S
$$


USA.gov is the U.S. government's official web portal to all federal, state and local government web resources and services.